QPF
0.00 0.00 0.00 0.00 0.00 0.00 0.00 0.00 0.00 0.00 0.00 0.00 0.00 0.00 0.00 0.00 0.00 0.00 0.00 0.00 0.00 0.00 0.00 0.00 0.00 0.00 0.00 0.00 0.00 0.00 0.00 0.00 0.00 0.00 0.00 0.00 0.00 0.00 0.00 0.00 0.00 0.00 0.00 0.00
0.00 0.00 0.00 0.00 0.00 0.00 0.00 0.00 0.00 0.00 0.00 0.00 0.00 0.00 0.00 0.00 0.00 0.00 0.00 0.00 0.00 0.00 0.00 0.00 0.00 0.00 0.00 0.00 0.00 0.00 0.00 0.00 0.00 0.00 0.00 0.00 0.00 0.00 0.00 0.00 0.00 0.00 0.00 0.00
0.00 0.00 0.00 0.00 0.00 0.00 0.00 0.00 0.00 0.00 0.00 0.00 0.00 0.00 0.00 0.00 0.00 0.00 0.00 0.00 0.00 0.00 0.00 0.00 0.00 0.00 0.00 0.00 0.00 0.00 0.00 0.00 0.00 0.00 0.00 0.00 0.00 0.00 0.00 0.00 0.00 0.00 0.00 0.00
0.00 0.00 0.00 0.00 0.00 0.00 0.00 0.00 0.00 0.00 0.00 0.00 0.00 0.00 0.00 0.00 0.00 0.00 0.00 0.00 0.00 0.00 0.00 0.00 0.00 0.00 0.00 0.00 0.00 0.00 0.00 0.00 0.00 0.00 0.00 0.00 0.00 0.00 0.00 0.00 0.00 0.00 0.00 0.00
0.00 0.00 0.00 0.00 0.00 0.00 0.00 0.00 0.00 0.00 0.00 0.00 0.00 0.00 0.00 0.00 0.00 0.00 0.00 0.00 0.00 0.00 0.00 0.00 0.00 0.00 0.00 0.00 0.00 0.00 0.00 0.00 0.00 0.00 0.00 0.00 0.00 0.00 0.00 0.00 0.00 0.00 0.00 0.00
0.00 0.00 0.00 0.00 0.00 0.00 0.00 0.00 0.00 0.00 0.00 0.00 0.00 0.00 0.00 0.00 0.00 0.00 0.00 0.00 0.00 0.00 0.00 0.00 0.00 0.00 0.00 0.00 0.00 0.00 0.00 0.00 0.00 0.00 0.00 0.00 0.00 0.00 0.00 0.00 0.00 0.00 0.00 0.00
0.00 0.00 0.00 0.00 0.00 0.00 0.00 0.00 0.00 0.00 0.00 0.00 0.00 0.00 0.00 0.00 0.00 0.00 0.00 0.00 0.00 0.00 0.00 0.00 0.00 0.00 0.00 0.00 0.00 0.00 0.00 0.00 0.00 0.00 0.00 0.00 0.00 0.00 0.00 0.00 0.00 0.00 0.00 0.00
0.00 0.00 0.00 0.00 0.00 0.00 0.00 0.00 0.00 0.00 0.00 0.00 0.00 0.00 0.00 0.00 0.00 0.00 0.00 0.00 0.00 0.00 0.00 0.00 0.00 0.00 0.00 0.00 0.00 0.00 0.00 0.00 0.00 0.00 0.00 0.00 0.00 0.00 0.00 0.00 0.00 0.00 0.00 0.00
0.00 0.00 0.00 0.00 0.00 0.00 0.00 0.00 0.00 0.00 0.00 0.00 0.00 0.00 0.00 0.00 0.00 0.00 0.00 0.00 0.00 0.00 0.00 0.00 0.00 0.00 0.00 0.00 0.00 0.00 0.00 0.00 0.00 0.00 0.00 0.00 0.00 0.00 0.00 0.00 0.00 0.00 0.00 0.00
0.00 0.01 0.00 0.00 0.00 0.00 0.00 0.00 0.00 0.00 0.00 0.00 0.00 0.00 0.00 0.00 0.00 0.00 0.00 0.00 0.00 0.00 0.00 0.00 0.00 0.00 0.00 0.00 0.00 0.00 0.00 0.00 0.00 0.00 0.00 0.00 0.00 0.00 0.00 0.00 0.00 0.00 0.00 0.00
0.01 0.01 0.00 0.00 0.00 0.00 0.00 0.00 0.00 0.00 0.00 0.00 0.00 0.00 0.00 0.00 0.00 0.00 0.00 0.00 0.00 0.00 0.00 0.00 0.00 0.00 0.00 0.00 0.00 0.00 0.00 0.00 0.00 0.00 0.00 0.00 0.00 0.00 0.00 0.00 0.00 0.00 0.00 0.00
0.00 0.01 0.00 0.00 0.00 0.00 0.00 0.00 0.00 0.00 0.00 0.00 0.00 0.00 0.00 0.00 0.00 0.00 0.00 0.00 0.00 0.00 0.00 0.00 0.00 0.00 0.00 0.00 0.00 0.00 0.00 0.00 0.00 0.00 0.00 0.00 0.00 0.00 0.00 0.00 0.00 0.00 0.00 0.00
0.02 0.03 0.01 0.00 0.00 0.00 0.00 0.00 0.00 0.01 0.01 0.01 0.02 0.00 0.00 0.00 0.00 0.00 0.00 0.00 0.00 0.00 0.00 0.00 0.00 0.00 0.00 0.00 0.00 0.00 0.00 0.00 0.00 0.00 0.00 0.00 0.00 0.00 0.00 0.00 0.00 0.00 0.00 0.00
0.01 0.01 0.01 0.01 0.00 0.00 0.00 0.00 0.00 0.00 0.01 0.01 0.01 0.01 0.01 0.00 0.00 0.00 0.00 0.00 0.00 0.00 0.00 0.00 0.00 0.00 0.00 0.00 0.00 0.00 0.00 0.00 0.00 0.00 0.00 0.00 0.00 0.00 0.00 0.00 0.00 0.00 0.00 0.00
0.01 0.00 0.00 0.00 0.00 0.00 0.00 0.00 0.00 0.00 0.00 0.01 0.00 0.00 0.00 0.00 0.00 0.00 0.00 0.00 0.00 0.00 0.00 0.00 0.00 0.00 0.00 0.00 0.00 0.00 0.00 0.00 0.00 0.00 0.00 0.00 0.00 0.00 0.00 0.00 0.00 0.00 0.00 0.00
0.00 0.00 0.00 0.00 0.00 0.00 0.00 0.00 0.00 0.00 0.00 0.00 0.00 0.00 0.00 0.00 0.00 0.00 0.00 0.00 0.00 0.00 0.00 0.00 0.00 0.00 0.00 0.00 0.00 0.00 0.00 0.00 0.00 0.00 0.00 0.00 0.00 0.00 0.00 0.00 0.00 0.00 0.00 0.00
0.00 0.00 0.00 0.00 0.00 0.00 0.00 0.00 0.00 0.00 0.00 0.00 0.00 0.00 0.00 0.00 0.00 0.00 0.00 0.00 0.00 0.00 0.00 0.00 0.00 0.00 0.00 0.00 0.00 0.00 0.00 0.00 0.00 0.00 0.00 0.00 0.00 0.00 0.00 0.00 0.00 0.00 0.00 0.00
0.00 0.00 0.00 0.00 0.00 0.00 0.00 0.00 0.00 0.00 0.00 0.00 0.00 0.00 0.00 0.00 0.00 0.00 0.00 0.00 0.00 0.00 0.00 0.00 0.00 0.00 0.00 0.00 0.00 0.00 0.00 0.00 0.00 0.00 0.00 0.00 0.00 0.00 0.00 0.00 0.00 0.00 0.00 0.00
0.00 0.00 0.00 0.00 0.00 0.00 0.00 0.00 0.00 0.00 0.00 0.00 0.00 0.00 0.00 0.00 0.00 0.00 0.00 0.00 0.00 0.00 0.00 0.00 0.00 0.00 0.00 0.00 0.00 0.00 0.00 0.00 0.00 0.00 0.00 0.00 0.00 0.00 0.00 0.00 0.00 0.00 0.00 0.00
0.00 0.00 0.00 0.00 0.00 0.00 0.00 0.00 0.00 0.00 0.00 0.00 0.00 0.00 0.00 0.00 0.00 0.00 0.00 0.00 0.00 0.00 0.00 0.00 0.00 0.00 0.00 0.00 0.00 0.00 0.00 0.00 0.00 0.00 0.00 0.00 0.00 0.00 0.00 0.00 0.00 0.00 0.00 0.00
0.00 0.00 0.00 0.00 0.01 0.00 0.00 0.00 0.00 0.00 0.00 0.00 0.00 0.00 0.00 0.00 0.00 0.00 0.00 0.00 0.00 0.00 0.00 0.00 0.00 0.00 0.00 0.00 0.00 0.00 0.00 0.00 0.00 0.00 0.00 0.00 0.00 0.00 0.00 0.00 0.00 0.00 0.00 0.00
0.00 0.00 0.00 0.00 0.00 0.00 0.00 0.00 0.00 0.00 0.00 0.00 0.00 0.00 0.00 0.00 0.00 0.00 0.00 0.00 0.00 0.00 0.00 0.00 0.00 0.00 0.00 0.00 0.00 0.00 0.00 0.00 0.00 0.00 0.00 0.00 0.00 0.00 0.00 0.00 0.00 0.00 0.00 0.00
0.00 0.00 0.00 0.00 0.00 0.00 0.00 0.00 0.00 0.00 0.00 0.00 0.00 0.00 0.00 0.00 0.00 0.00 0.00 0.00 0.00 0.00 0.00 0.00 0.00 0.00 0.00 0.00 0.00 0.00 0.00 0.00 0.00 0.00 0.00 0.00 0.00 0.00 0.00 0.00 0.00 0.00 0.00 0.00
0.00 0.00 0.00 0.00 0.00 0.00 0.00 0.00 0.00 0.00 0.00 0.00 0.00 0.00 0.00 0.00 0.00 0.00 0.00 0.00 0.00 0.00 0.00 0.00 0.00 0.00 0.00 0.00 0.00 0.00 0.00 0.00 0.00 0.00 0.00 0.00 0.00 0.00 0.00 0.00 0.00 0.00 0.00 0.00
0.00 0.00 0.00 0.00 0.00 0.00 0.00 0.00 0.00 0.00 0.00 0.00 0.00 0.00 0.00 0.00 0.00 0.00 0.00 0.00 0.00 0.00 0.00 0.00 0.00 0.00 0.00 0.00 0.00 0.00 0.00 0.00 0.00 0.00 0.00 0.00 0.00 0.00 0.00 0.00 0.00 0.00 0.00 0.00
0.00 0.00 0.00 0.00 0.00 0.00 0.00 0.00 0.00 0.00 0.00 0.00 0.00 0.00 0.00 0.00 0.00 0.00 0.00 0.00 0.00 0.00 0.00 0.00 0.00 0.00 0.00 0.00 0.00 0.00 0.00 0.00 0.00 0.00 0.00 0.00 0.00 0.00 0.00 0.00 0.00 0.00 0.00 0.00
MSLP
1016.85 1016.39 1015.29 1014.31 1014.20 1013.72 1013.96 1013.83 1013.32 1012.48 1012.49 1012.74 1011.52 1011.18 1010.65 1009.31 1008.80 1008.13 1007.61 1007.87 1007.53 1007.53 1007.59 1007.46 1007.41 1007.53 1007.55 1007.05 1007.02 1007.44 1007.82 1008.38 1008.72 1009.48 1009.90 1010.19 1010.28 1011.13 1011.45 1011.68 1012.11 1012.66 1013.44 1014.13
1016.96 1015.46 1014.25 1014.54 1014.76 1014.66 1014.27 1013.94 1013.11 1012.70 1012.53 1012.98 1011.55 1010.76 1009.64 1008.88 1007.88 1007.64 1007.79 1007.71 1007.88 1008.26 1008.20 1008.41 1008.66 1008.60 1008.81 1008.56 1008.04 1007.78 1007.81 1008.10 1009.00 1009.25 1009.59 1010.03 1010.45 1010.61 1011.12 1011.76 1012.30 1012.66 1012.99 1013.56
1015.40 1014.41 1014.68 1015.07 1015.00 1014.87 1014.43 1013.99 1013.07 1012.99 1013.01 1012.45 1011.84 1010.05 1009.30 1008.37 1008.06 1007.96 1007.85 1008.42 1008.92 1009.29 1009.67 1009.86 1009.99 1010.25 1010.20 1009.82 1009.35 1008.74 1008.58 1008.90 1009.03 1009.40 1010.12 1010.57 1010.93 1011.07 1011.16 1011.73 1012.59 1013.29 1013.52 1013.80
1015.76 1015.34 1015.17 1015.43 1015.27 1014.92 1014.45 1013.97 1013.86 1013.61 1013.44 1012.38 1012.42 1008.78 1008.65 1007.69 1007.66 1008.15 1008.73 1009.12 1010.16 1010.84 1011.36 1011.87 1012.20 1011.86 1011.66 1011.32 1010.95 1009.84 1009.65 1009.66 1010.14 1010.21 1010.45 1010.68 1010.84 1010.88 1011.23 1011.29 1011.60 1012.53 1013.59 1013.88
1014.70 1015.09 1015.39 1015.29 1014.87 1014.83 1014.29 1014.34 1014.57 1014.41 1013.55 1012.73 1012.00 1011.05 1007.95 1007.98 1008.02 1008.69 1010.01 1011.28 1012.07 1013.01 1013.41 1013.59 1013.95 1013.36 1013.17 1012.14 1010.64 1011.14 1010.94 1011.00 1010.93 1010.94 1010.93 1010.99 1010.94 1010.82 1011.02 1011.63 1011.71 1012.09 1012.60 1013.32
1015.06 1015.59 1015.31 1014.57 1014.79 1014.83 1015.03 1014.92 1014.66 1014.76 1014.03 1011.88 1010.65 1010.61 1008.23 1008.46 1008.89 1010.08 1011.74 1013.07 1013.88 1014.28 1014.35 1014.38 1014.75 1014.38 1012.97 1012.69 1012.65 1012.40 1012.00 1012.01 1012.17 1011.93 1011.61 1011.36 1011.25 1011.22 1010.98 1011.34 1011.40 1011.83 1012.16 1012.49
1014.61 1014.72 1014.73 1014.89 1014.91 1015.10 1015.33 1014.87 1014.40 1013.80 1013.24 1011.16 1010.72 1010.43 1008.50 1009.51 1010.66 1011.63 1012.71 1014.00 1014.45 1015.33 1014.98 1014.29 1013.87 1014.19 1014.88 1014.82 1014.38 1013.56 1012.84 1012.97 1013.01 1012.78 1012.58 1012.21 1011.66 1011.46 1011.60 1011.29 1011.06 1011.30 1011.67 1012.01
1014.12 1013.34 1014.37 1014.53 1014.19 1013.77 1014.42 1014.14 1013.86 1013.00 1012.15 1011.03 1011.47 1009.18 1008.27 1010.42 1012.28 1013.49 1014.40 1015.20 1015.60 1015.64 1015.88 1015.65 1015.64 1015.83 1015.60 1015.67 1015.31 1014.95 1014.19 1013.92 1013.92 1013.51 1013.16 1012.66 1012.25 1011.81 1011.52 1011.39 1011.39 1011.12 1011.22 1011.30
1014.36 1013.40 1014.01 1014.29 1014.29 1014.52 1014.60 1014.16 1013.53 1013.45 1013.03 1012.17 1010.22 1008.65 1008.53 1010.80 1013.26 1014.57 1015.63 1016.36 1016.78 1016.96 1016.85 1016.78 1016.91 1016.96 1016.50 1016.21 1015.90 1015.65 1015.48 1014.94 1014.63 1014.40 1013.93 1012.70 1012.78 1012.24 1011.80 1011.60 1011.89 1011.60 1011.11 1011.29
1015.31 1015.12 1014.47 1014.43 1014.88 1014.59 1014.85 1014.02 1014.13 1013.97 1013.22 1011.89 1010.51 1009.66 1009.42 1011.67 1013.97 1015.45 1016.57 1017.22 1017.50 1017.45 1017.38 1017.41 1017.02 1017.40 1017.40 1017.15 1016.35 1015.99 1015.92 1015.50 1015.09 1014.88 1013.99 1013.63 1013.44 1012.89 1012.36 1012.09 1011.75 1011.86 1011.38 1011.10
1015.77 1016.15 1014.51 1015.13 1014.38 1013.93 1014.28 1014.25 1014.21 1013.94 1013.48 1012.52 1011.34 1010.56 1011.81 1013.45 1015.45 1016.28 1017.22 1017.85 1018.18 1018.09 1018.02 1017.86 1017.62 1017.31 1017.26 1017.22 1016.98 1016.15 1015.63 1015.55 1014.89 1014.43 1014.91 1014.21 1013.94 1013.52 1012.80 1012.21 1011.98 1011.63 1011.43 1011.41
1016.09 1016.32 1015.89 1014.50 1014.08 1014.09 1013.91 1013.95 1013.84 1013.62 1013.07 1012.56 1012.11 1011.56 1013.44 1014.76 1016.08 1016.91 1017.93 1018.34 1018.62 1018.48 1018.47 1017.90 1017.73 1017.62 1017.24 1017.18 1016.99 1016.72 1016.45 1015.92 1015.66 1015.40 1015.56 1014.61 1014.23 1013.98 1013.52 1012.77 1012.34 1011.84 1010.98 1011.07
1016.66 1016.70 1016.27 1015.44 1014.85 1014.76 1014.48 1013.91 1013.92 1013.62 1013.83 1013.00 1012.79 1012.73 1014.67 1015.91 1016.44 1017.20 1017.43 1018.29 1018.68 1018.67 1018.69 1018.27 1017.84 1017.68 1017.55 1017.28 1017.45 1017.13 1016.82 1016.55 1016.20 1015.68 1015.73 1014.94 1014.40 1014.21 1013.42 1013.56 1013.10 1012.31 1011.41 1011.02
1017.66 1017.19 1016.77 1016.19 1014.86 1014.39 1014.49 1014.46 1014.39 1014.65 1013.95 1013.44 1013.07 1012.53 1013.27 1015.27 1016.23 1016.77 1017.42 1017.91 1018.28 1018.21 1018.28 1017.97 1017.99 1018.06 1017.84 1017.56 1017.45 1017.28 1016.77 1016.41 1016.23 1016.27 1015.74 1014.99 1014.63 1014.59 1014.11 1013.51 1012.96 1012.25 1012.18 1011.51
1018.07 1017.49 1017.00 1016.50 1016.24 1015.94 1015.22 1015.20 1014.98 1014.59 1014.59 1014.19 1013.43 1013.66 1013.79 1014.54 1015.91 1016.72 1017.17 1017.42 1017.67 1017.75 1017.79 1018.08 1018.19 1018.05 1018.00 1017.92 1017.93 1017.43 1016.88 1016.68 1016.51 1016.26 1015.72 1015.14 1014.75 1014.54 1014.24 1013.44 1013.24 1012.76 1012.04 1011.62
1018.70 1017.93 1017.56 1016.68 1016.42 1016.11 1015.56 1015.13 1014.60 1014.71 1014.80 1014.56 1014.52 1013.78 1013.88 1015.63 1016.31 1016.72 1016.84 1016.97 1017.15 1017.40 1017.63 1017.88 1017.94 1017.87 1017.79 1017.66 1017.59 1017.46 1017.17 1016.83 1016.51 1016.11 1015.66 1015.27 1014.89 1014.61 1014.17 1013.71 1013.05 1012.70 1011.97 1010.98
1019.67 1019.04 1018.38 1016.73 1017.00 1016.64 1015.72 1014.73 1015.06 1014.55 1014.15 1014.20 1014.18 1014.54 1015.62 1016.29 1016.55 1016.71 1016.91 1017.03 1017.02 1017.22 1017.33 1017.26 1017.24 1017.25 1017.29 1017.39 1017.44 1017.11 1016.88 1016.68 1016.47 1016.17 1015.64 1015.17 1014.77 1014.48 1014.06 1013.63 1012.88 1012.42 1011.81 1010.95
1019.55 1019.35 1019.03 1017.52 1017.83 1015.88 1014.28 1015.01 1015.11 1014.73 1014.47 1015.05 1015.68 1016.25 1016.75 1016.83 1016.80 1016.93 1016.93 1016.82 1016.76 1016.88 1016.90 1016.88 1016.92 1016.88 1016.79 1016.85 1016.90 1016.75 1016.61 1016.49 1016.19 1015.84 1015.56 1015.24 1014.84 1014.35 1013.86 1013.43 1012.84 1011.87 1011.16 1010.61
1019.17 1019.21 1018.73 1018.37 1017.27 1015.48 1015.43 1015.53 1015.55 1015.49 1015.02 1016.03 1016.44 1016.89 1017.02 1017.14 1017.21 1016.51 1016.59 1016.42 1016.36 1016.42 1016.60 1016.77 1016.88 1016.92 1016.81 1016.75 1016.70 1016.55 1016.36 1016.24 1015.88 1015.50 1015.13 1014.77 1014.50 1014.21 1013.83 1013.18 1012.41 1011.65 1011.00 1009.99
1019.20 1019.49 1019.69 1019.39 1018.13 1016.18 1015.38 1016.09 1016.13 1016.24 1016.16 1016.61 1017.03 1017.19 1017.22 1017.25 1016.58 1015.64 1015.69 1016.00 1016.04 1016.23 1016.58 1016.83 1016.90 1016.93 1016.84 1016.51 1016.54 1016.49 1016.22 1015.98 1015.49 1015.17 1014.76 1014.47 1014.29 1014.11 1013.65 1013.08 1012.25 1011.27 1010.48 1009.28
1019.75 1019.72 1019.54 1018.74 1018.00 1016.65 1016.34 1016.63 1016.75 1016.67 1016.65 1016.90 1017.21 1016.99 1016.86 1016.68 1016.05 1015.57 1015.66 1015.82 1016.01 1016.38 1016.76 1017.11 1017.15 1016.98 1016.92 1016.84 1016.90 1016.60 1016.33 1015.83 1015.43 1015.03 1014.63 1014.29 1014.04 1013.66 1013.24 1012.58 1011.76 1010.90 1009.86 1008.73
1019.38 1019.27 1019.29 1019.51 1018.57 1017.28 1016.76 1016.98 1016.76 1015.83 1015.87 1016.36 1016.39 1016.27 1016.17 1016.01 1015.79 1015.70 1015.54 1015.52 1015.97 1016.72 1017.00 1017.13 1017.23 1017.17 1017.04 1017.28 1017.35 1016.85 1016.20 1015.89 1015.49 1015.20 1014.71 1014.19 1013.80 1013.38 1012.75 1012.15 1011.20 1010.47 1009.48 1008.14
1019.29 1018.24 1018.32 1018.70 1017.35 1016.46 1016.68 1016.06 1015.65 1015.61 1015.64 1015.39 1015.54 1015.55 1015.70 1015.75 1015.62 1015.50 1015.69 1016.22 1016.75 1017.23 1017.48 1017.80 1018.07 1017.84 1017.39 1017.66 1017.73 1017.05 1016.09 1016.07 1015.58 1015.04 1014.37 1013.93 1013.49 1012.99 1012.41 1011.44 1010.32 1009.53 1008.60 1007.25
1017.83 1017.91 1017.80 1017.84 1016.16 1015.86 1015.58 1015.28 1014.95 1014.81 1014.87 1015.03 1015.34 1015.50 1015.73 1015.83 1015.96 1016.22 1016.73 1017.12 1017.45 1017.86 1018.10 1018.34 1018.44 1018.18 1017.57 1017.79 1017.76 1017.55 1016.74 1016.37 1015.83 1014.97 1014.18 1013.65 1013.00 1012.17 1011.58 1010.76 1009.84 1008.79 1007.57 1006.22
1016.83 1017.30 1016.74 1016.20 1015.56 1015.05 1014.63 1014.54 1014.41 1014.45 1014.73 1014.97 1015.49 1015.97 1016.37 1016.79 1016.94 1017.35 1017.73 1018.10 1018.42 1018.74 1018.99 1019.27 1019.31 1018.89 1018.09 1017.91 1017.63 1017.44 1017.04 1016.63 1015.68 1014.76 1013.83 1013.04 1012.34 1011.44 1010.38 1009.60 1008.77 1007.72 1006.53 1005.72
1015.75 1015.29 1015.57 1014.57 1014.20 1014.27 1013.52 1013.92 1014.24 1014.56 1014.93 1015.66 1016.31 1016.85 1017.39 1017.86 1018.13 1018.48 1018.78 1019.08 1019.41 1019.56 1019.72 1019.67 1019.50 1019.13 1018.41 1017.84 1017.33 1016.95 1016.67 1016.14 1015.26 1014.08 1013.17 1012.22 1011.33 1010.39 1009.39 1008.22 1006.88 1006.54 1005.22 1004.03
Thickness
5654 5653 5659 5674 5669 5671 5656 5649 5647 5666 5671 5653 5670 5663 5669 5689 5695 5698 5701 5699 5702 5703 5708 5711 5709 5707 5708 5713 5712 5710 5706 5699 5698 5690 5685 5683 5683 5676 5673 5673 5669 5664 5658 5652
5644 5646 5670 5657 5649 5644 5644 5636 5645 5652 5657 5638 5652 5656 5670 5677 5691 5694 5693 5693 5693 5690 5694 5694 5691 5692 5688 5690 5696 5698 5699 5696 5684 5681 5678 5673 5671 5671 5667 5662 5656 5653 5651 5647
5651 5661 5651 5638 5640 5633 5636 5632 5642 5637 5636 5643 5634 5653 5655 5676 5676 5679 5683 5678 5677 5674 5671 5673 5672 5669 5670 5671 5675 5681 5682 5679 5679 5675 5664 5658 5654 5653 5654 5648 5639 5632 5629 5628
5631 5635 5632 5625 5624 5630 5621 5638 5630 5624 5619 5623 5624 5637 5656 5666 5666 5661 5661 5661 5655 5650 5650 5649 5646 5650 5650 5651 5652 5661 5662 5661 5657 5658 5655 5651 5649 5646 5639 5638 5634 5625 5612 5611
5637 5620 5615 5614 5623 5619 5626 5617 5609 5604 5610 5608 5617 5610 5655 5646 5647 5650 5639 5630 5623 5616 5616 5617 5619 5627 5629 5635 5646 5639 5640 5637 5638 5637 5638 5636 5637 5638 5635 5627 5624 5618 5612 5603
5616 5604 5609 5622 5610 5609 5601 5602 5599 5590 5595 5610 5629 5615 5640 5641 5640 5635 5618 5605 5599 5599 5598 5600 5597 5598 5612 5616 5618 5619 5622 5620 5616 5616 5618 5619 5618 5619 5622 5617 5616 5610 5605 5600
5607 5602 5602 5599 5600 5593 5590 5591 5589 5589 5589 5606 5607 5600 5632 5633 5621 5616 5606 5593 5587 5579 5582 5588 5591 5587 5578 5576 5581 5591 5597 5595 5595 5596 5595 5597 5601 5601 5599 5603 5606 5602 5597 5593
5591 5601 5593 5592 5599 5603 5584 5589 5585 5567 5584 5598 5565 5599 5634 5613 5590 5577 5572 5568 5564 5567 5559 5558 5556 5555 5555 5553 5554 5556 5563 5566 5567 5570 5572 5577 5579 5580 5581 5582 5582 5585 5584 5583
5578 5592 5580 5576 5577 5579 5568 5566 5579 5557 5553 5553 5592 5612 5627 5605 5568 5556 5548 5540 5536 5532 5533 5528 5526 5526 5528 5529 5532 5533 5535 5538 5541 5544 5548 5557 5556 5559 5561 5560 5557 5560 5565 5564
5556 5542 5569 5564 5553 5557 5557 5562 5548 5545 5529 5535 5562 5579 5595 5589 5555 5536 5525 5519 5515 5512 5509 5506 5507 5501 5499 5502 5509 5512 5512 5515 5517 5519 5527 5529 5530 5535 5539 5538 5538 5538 5543 5547
5538 5525 5556 5537 5552 5555 5546 5536 5532 5532 5529 5522 5524 5549 5560 5543 5513 5510 5501 5493 5489 5489 5488 5486 5485 5484 5481 5482 5484 5490 5494 5494 5498 5502 5498 5504 5507 5509 5517 5521 5520 5523 5524 5523
5527 5506 5507 5538 5545 5532 5531 5528 5531 5518 5520 5529 5523 5528 5505 5497 5487 5481 5473 5470 5465 5462 5463 5466 5464 5461 5463 5463 5464 5465 5466 5469 5472 5475 5476 5481 5483 5487 5489 5495 5499 5501 5508 5508
5507 5494 5499 5510 5522 5510 5508 5515 5516 5519 5494 5502 5502 5509 5479 5470 5468 5463 5467 5453 5445 5442 5440 5441 5442 5440 5439 5439 5437 5440 5442 5443 5445 5450 5453 5460 5463 5463 5469 5466 5470 5477 5483 5485
5480 5480 5490 5492 5511 5513 5501 5498 5498 5490 5477 5490 5495 5505 5514 5473 5460 5452 5445 5439 5433 5429 5423 5423 5421 5419 5419 5417 5416 5416 5418 5420 5422 5422 5426 5433 5438 5439 5442 5446 5449 5455 5455 5461
5465 5462 5475 5470 5470 5470 5472 5465 5473 5471 5464 5447 5476 5467 5480 5473 5435 5427 5421 5419 5415 5412 5409 5403 5399 5398 5395 5394 5390 5392 5394 5394 5394 5397 5401 5406 5410 5412 5415 5424 5425 5428 5434 5439
5446 5438 5448 5442 5463 5452 5437 5452 5459 5451 5444 5438 5440 5443 5458 5408 5403 5403 5403 5400 5399 5395 5390 5385 5381 5378 5375 5373 5369 5367 5368 5369 5369 5371 5374 5377 5382 5385 5389 5393 5400 5402 5408 5419
5416 5414 5418 5420 5434 5416 5398 5425 5428 5438 5452 5447 5431 5423 5380 5378 5381 5383 5379 5376 5376 5371 5368 5367 5364 5363 5360 5352 5344 5343 5343 5343 5344 5343 5346 5350 5352 5355 5360 5364 5369 5375 5381 5388
5397 5394 5387 5390 5384 5377 5428 5409 5405 5407 5412 5385 5364 5350 5350 5354 5358 5356 5352 5352 5353 5349 5347 5345 5342 5341 5339 5334 5325 5320 5317 5315 5316 5319 5318 5319 5321 5325 5329 5332 5339 5347 5354 5362
5385 5379 5369 5358 5364 5381 5386 5392 5380 5374 5387 5352 5345 5338 5335 5331 5327 5341 5334 5331 5331 5328 5324 5320 5315 5311 5311 5307 5301 5297 5295 5290 5289 5289 5291 5292 5292 5292 5294 5298 5309 5316 5322 5335
5360 5352 5343 5308 5322 5332 5374 5350 5344 5341 5337 5323 5315 5316 5314 5305 5311 5332 5327 5315 5312 5308 5300 5293 5289 5287 5284 5282 5277 5272 5270 5266 5264 5263 5266 5264 5260 5259 5261 5264 5272 5283 5290 5306
5320 5310 5317 5324 5318 5330 5330 5320 5321 5311 5323 5304 5298 5301 5300 5295 5305 5310 5306 5298 5292 5284 5276 5268 5265 5263 5259 5253 5246 5245 5242 5241 5237 5235 5234 5234 5231 5229 5230 5232 5241 5247 5257 5269
5323 5314 5297 5264 5279 5295 5310 5298 5303 5317 5308 5298 5296 5295 5289 5289 5288 5285 5284 5283 5273 5260 5252 5246 5240 5238 5234 5222 5213 5213 5216 5209 5205 5200 5199 5200 5200 5201 5203 5203 5210 5215 5222 5234
5293 5312 5301 5287 5302 5308 5294 5298 5300 5299 5290 5298 5291 5290 5282 5278 5275 5275 5269 5258 5248 5238 5231 5221 5211 5208 5210 5196 5184 5182 5187 5175 5171 5169 5169 5165 5164 5166 5169 5173 5182 5185 5194 5205
5302 5297 5285 5277 5307 5301 5300 5297 5296 5294 5289 5287 5280 5274 5268 5263 5260 5253 5243 5232 5224 5214 5206 5198 5190 5185 5185 5172 5162 5151 5149 5143 5138 5138 5140 5135 5132 5135 5137 5141 5148 5155 5167 5179
5299 5280 5277 5276 5291 5290 5294 5290 5288 5285 5280 5275 5263 5253 5246 5238 5235 5226 5217 5206 5199 5190 5182 5172 5164 5158 5158 5150 5141 5130 5121 5115 5114 5114 5114 5113 5110 5113 5118 5122 5126 5131 5144 5149
5293 5286 5273 5277 5291 5279 5291 5286 5279 5272 5266 5250 5238 5228 5218 5211 5207 5200 5192 5185 5176 5169 5160 5152 5145 5138 5135 5130 5123 5114 5107 5102 5098 5099 5098 5097 5096 5098 5102 5107 5116 5115 5125 5135